CDT,Max TemperatureF,Mean TemperatureF,Min TemperatureF,Max Dew PointF,MeanDew PointF,Min DewpointF,Max Humidity, Mean Humidity, Min Humidity, Max Sea Level PressureIn, Mean Sea Level PressureIn, Min Sea Level PressureIn, Max VisibilityMiles, Mean VisibilityMiles, Min VisibilityMiles, Max Wind SpeedMPH, Mean Wind SpeedMPH, Max Gust SpeedMPH,PrecipitationIn, CloudCover, Events, WindDirDegrees
2013-9-1,84,76,68,73,70,66,100,83,65,29.83,29.80,29.75,10,9,3,14,6,17,0.00,4,,246
2013-9-2,86,74,61,71,64,59,100,72,44,29.94,29.88,29.81,10,10,8,16,8,,0.00,0,,322
2013-9-3,77,66,55,60,57,54,100,73,46,30.08,30.04,29.96,10,8,0,13,4,,0.00,0,Fog,22
2013-9-4,83,68,53,64,58,54,100,72,43,30.17,30.13,30.08,10,10,10,9,2,13,0.00,0,,285
2013-9-5,86,73,59,66,61,58,100,72,43,30.21,30.16,30.13,10,10,8,8,2,12,0.00,0,,294
2013-9-6,86,74,62,68,64,61,93,71,48,30.19,30.13,30.05,10,10,10,12,4,14,0.00,0,,158
2013-9-7,87,77,67,68,65,63,93,68,43,30.06,30.00,29.93,10,10,7,13,6,17,T,0,,209
2013-9-8,87,79,71,72,69,67,93,72,50,29.97,29.94,29.91,10,10,6,10,4,13,0.00,1,,211
2013-9-9,95,83,71,74,71,69,100,73,46,29.96,29.94,29.90,10,8,3,15,7,21,0.00,1,,191
2013-9-10,96,85,74,73,71,67,94,68,41,30.08,30.04,29.97,10,8,4,17,7,24,0.00,0,,193
2013-9-11,95,84,72,72,67,60,100,67,33,30.12,30.06,29.99,10,9,3,16,7,21,0.00,0,,225
2013-9-12,84,71,57,72,64,50,100,71,41,30.05,30.00,29.93,10,10,8,21,9,28,0.12,2,Rain,298
2013-9-13,73,61,48,56,50,43,100,68,35,30.14,30.10,30.04,10,10,10,20,8,25,0.00,1,,9
2013-9-14,73,57,41,48,44,39,100,66,31,30.19,30.12,30.07,10,10,10,13,4,15,0.00,0,,123
2013-9-15,77,63,49,61,52,46,93,67,41,30.10,30.06,30.00,10,10,10,17,6,22,0.00,4,,183
2013-9-16,67,60,53,61,56,51,100,82,63,30.28,30.22,30.10,10,9,4,17,10,22,0.00,8,,35
2013-9-17,76,63,49,55,52,48,96,71,46,30.29,30.21,30.10,10,10,10,15,6,21,0.00,2,,113
2013-9-18,83,73,62,69,63,54,93,76,58,30.12,30.05,29.99,10,9,5,14,8,18,0.01,2,Rain,170
2013-9-19,89,80,71,71,70,68,93,72,50,30.01,29.96,29.87,10,8,5,17,9,22,T,2,,188
2013-9-20,75,66,57,72,68,56,100,91,82,29.91,29.87,29.83,10,9,2,14,6,17,0.22,6,Rain-Thunderstorm,247
2013-9-21,73,62,50,54,50,45,100,70,40,29.92,29.88,29.85,10,10,10,21,9,25,0.00,1,,320
2013-9-22,73,59,45,51,47,44,100,68,35,30.03,29.98,29.94,10,10,10,10,3,14,0.00,0,,70
2013-9-23,75,36,0,49,44,-1,100,67,33,30.08,30.02,29.99,10,10,10,13,6,18,0.00,0,,117
2013-9-24,80,65,49,59,54,48,93,69,45,30.01,29.93,29.85,10,10,10,14,6,16,0.00,1,,125
2013-9-25,82,71,59,62,59,54,100,70,40,29.90,29.86,29.83,10,10,7,12,4,,0.00,2,,88
2013-9-26,83,68,52,57,51,43,96,60,24,30.05,30.00,29.91,10,10,8,10,3,,0.00,0,,104
2013-9-27,82,67,51,57,53,50,100,68,36,30.15,30.09,30.05,10,10,10,14,5,17,0.00,0,,144
2013-9-28,82,69,55,60,56,53,93,66,39,30.10,30.03,29.98,10,10,10,21,9,30,T,3,,173
2013-9-29,76,66,55,63,56,48,100,69,38,30.04,30.00,29.96,10,8,0,15,6,18,0.13,5,Fog-Rain,249
2013-9-30,76,67,58,63,60,56,100,75,50,30.01,29.98,29.93,10,5,0,14,6,18,0.00,6,Fog,178